TimePST,TemperatureF,Dew PointF,Humidity,Sea Level PressureIn,VisibilityMPH,Wind Direction,Wind SpeedMPH,Gust SpeedMPH,PrecipitationIn,Events,Conditions,WindDirDegrees,DateUTC
12:56 AM,30.9,19.9,64,29.69,10.0,NNE,3.5,-,N/A,,Clear,20,2011-11-20 08:56:00
1:56 AM,30.9,19.0,61,29.70,10.0,Calm,Calm,-,N/A,,Overcast,0,2011-11-20 09:56:00
2:56 AM,30.0,19.0,64,29.70,10.0,NE,4.6,-,N/A,,Mostly Cloudy,50,2011-11-20 10:56:00
3:56 AM,32.0,21.0,64,29.70,10.0,Calm,Calm,-,N/A,,Overcast,0,2011-11-20 11:56:00
4:56 AM,30.9,19.9,64,29.70,10.0,Calm,Calm,-,N/A,,Overcast,0,2011-11-20 12:56:00
5:56 AM,30.0,19.9,66,29.72,10.0,Calm,Calm,-,N/A,,Overcast,0,2011-11-20 13:56:00
6:56 AM,32.0,21.0,64,29.72,10.0,NNW,5.8,-,N/A,,Scattered Clouds,340,2011-11-20 14:56:00
7:56 AM,33.1,21.0,61,29.74,10.0,North,5.8,-,N/A,,Clear,360,2011-11-20 15:56:00
8:56 AM,35.1,21.9,59,29.77,10.0,NNW,3.5,-,N/A,,Mostly Cloudy,340,2011-11-20 16:56:00
9:56 AM,37.0,23.0,57,29.78,10.0,North,4.6,-,N/A,,Overcast,10,2011-11-20 17:56:00
10:56 AM,39.9,21.9,49,29.78,10.0,NNE,5.8,-,N/A,,Overcast,20,2011-11-20 18:56:00
11:05 AM,39.2,21.2,49,29.86,10.0,North,4.6,-,N/A,,Overcast,360,2011-11-20 19:05:00
11:56 AM,44.1,23.0,43,29.78,10.0,North,5.8,-,N/A,,Mostly Cloudy,350,2011-11-20 19:56:00
12:56 PM,46.0,23.0,40,29.78,10.0,NNE,6.9,-,N/A,,Mostly Cloudy,20,2011-11-20 20:56:00
1:56 PM,46.9,24.1,41,29.78,10.0,NNW,10.4,-,N/A,,Mostly Cloudy,340,2011-11-20 21:56:00
2:56 PM,44.1,25.0,47,29.80,10.0,NNW,11.5,-,N/A,,Mostly Cloudy,340,2011-11-20 22:56:00
3:56 PM,43.0,26.1,51,29.81,10.0,North,10.4,-,N/A,,Mostly Cloudy,350,2011-11-20 23:56:00
4:56 PM,37.0,24.1,59,29.81,10.0,North,5.8,-,N/A,,Mostly Cloudy,360,2011-11-21 00:56:00
5:56 PM,32.0,24.1,73,29.83,10.0,NNE,3.5,-,N/A,,Mostly Cloudy,20,2011-11-21 01:56:00
6:56 PM,30.0,23.0,75,29.85,10.0,NE,4.6,-,N/A,,Clear,50,2011-11-21 02:56:00
7:56 PM,28.0,21.9,78,29.87,10.0,NNE,3.5,-,N/A,,Clear,20,2011-11-21 03:56:00
8:56 PM,28.0,24.1,85,29.88,10.0,East,3.5,-,N/A,,Clear,80,2011-11-21 04:56:00
9:56 PM,28.0,21.9,78,29.89,10.0,Calm,Calm,-,N/A,,Clear,0,2011-11-21 05:56:00
10:56 PM,27.0,21.0,78,29.91,10.0,WNW,3.5,-,N/A,,Clear,300,2011-11-21 06:56:00
11:56 PM,21.9,17.1,82,29.91,10.0,Calm,Calm,-,N/A,,Clear,0,2011-11-21 07:56:00